Regional Weather Roundup
Issued by NWS Spokane, WA

Home | Current Version | Previous Version | Text Only | Print | Product List | Glossary On
Versions: 1 2 3 4 5 6 7 8 9 10 11 12 13 14 15 16 17 18 19 20 21 22 23 24 25 26 27 28 29 30 31 32 33 34 35 36 37 38 39 40 41 42 43 44 45 46 47 48 49 50
000
NZUS01 KOTX 062000
RWROTX
EASTERN WASHINGTON/NORTHERN IDAHO ROUNDUP
NATIONAL WEATHER SERVICE, SPOKANE WA
100 PM PDT FRI MAY 06 2016

Note: "fair" indicated few or no clouds below 12,000 feet with no
significant weather and/or obstructions to visibility.

...NORTHEAST WASHINGTON AND NORTHERN IDAHO PANHANDLE...

CITY           SKY/WX    TMP DP  RH WIND       PRES   REMARKS
SPOKANE INTL   PTSUNNY   74  45  35 NE24      30.01F
SPOKANE DOWNTO MOSUNNY   76  46  34 E17G30    30.01F
COEUR D ALENE  MOSUNNY   73  46  38 E10       30.01F
DEER PARK      SUNNY     74  45  35 NE17G25   30.03F

...SOUTHEAST WASHINGTON AND SOUTHERN IDAHO PANHANDLE...

CITY           SKY/WX    TMP DP  RH WIND       PRES   REMARKS
WALLA WALLA    PTSUNNY   66  53  63 S8        29.97F
PULLMAN/MOSCOW CLOUDY    70  51  51 NE14      29.99F
LOWELL           N/A     70  54  56 S12G17    29.89F

...COLUMBIA BASIN...

CITY           SKY/WX    TMP DP  RH WIND       PRES   REMARKS
EPHRATA        SUNNY     79  47  32 NE16G26   29.99F
MOSES LAKE     SUNNY     81  48  31 NE15G23   29.99S
TRI CITIES     MOSUNNY   79  55  43 NE8       29.94F
HERMISTON      MOSUNNY   73  53  49 CALM      29.95F
PENDLETON      PTSUNNY   67  49  52 N6        29.97F

...EAST SLOPES CASCADES...

CITY           SKY/WX    TMP DP  RH WIND       PRES   REMARKS
THE DALLES     SUNNY     79  47  32 VRB3      29.95F
YAKIMA         MOSUNNY   79  44  28 NE15G24   30.00S
ELLENSBURG     SUNNY     78  44  29 NW5       30.02F
STAMPEDE PASS  SUNNY     65  39  38 CALM      30.10S
WENATCHEE      MOSUNNY   75  39  27 W12       30.03F
OMAK           SUNNY     76  42  29 N16       30.04F

...SOUTHERN BRITISH COLUMBIA...

CITY           SKY/WX    TMP DP  RH WIND       PRES   REMARKS

...WESTERN MONTANA...

CITY           SKY/WX    TMP DP  RH WIND       PRES   REMARKS
MISSOULA       CLOUDY    64  42  44 SE18      30.11S

...NEIGHBORING CITIES...

CITY           SKY/WX    TMP DP  RH WIND       PRES   REMARKS
SEATTLE        MOSUNNY   71  44  37 N13       30.05F



USA.gov is the U.S. government's official web portal to all federal, state and local government web resources and services.